Probability
0 0 0 0 0 0 0 0 0 0 0 0 0 0 0 0 0 0 0 0 0 0 0 0 0 0 0 0 0 0 0 0 0 0 0 0 0 0 0 0 0 0 0 0
0 0 0 0 0 0 0 0 0 0 0 0 0 0 0 0 0 0 0 0 0 0 0 0 0 0 0 0 0 0 0 0 0 0 0 0 0 0 0 0 0 0 0 0
0 0 0 0 0 0 0 0 0 0 0 0 0 0 0 0 0 0 0 0 0 0 0 0 0 0 0 0 0 0 0 0 0 0 0 0 0 0 0 0 0 0 0 0
0 0 0 0 0 0 0 0 0 0 0 0 0 0 0 0 0 0 0 0 0 0 0 0 0 0 0 0 0 0 0 0 0 0 0 0 0 0 0 0 0 0 0 0
0 0 0 0 0 0 0 0 0 0 0 0 0 0 0 0 0 0 0 0 0 0 0 0 0 0 0 0 0 0 0 0 0 0 0 0 0 0 0 0 0 0 0 0
0 0 0 0 0 0 0 0 0 0 0 0 0 0 0 0 0 0 0 0 0 0 0 0 0 0 0 0 0 0 0 0 0 0 0 0 0 0 0 0 0 0 0 0
0 0 0 0 0 0 0 0 0 0 0 0 0 0 0 0 0 0 0 0 0 0 0 0 0 0 0 0 0 0 0 0 0 0 0 0 0 0 0 0 0 0 0 0
0 0 0 0 0 0 0 0 0 0 0 0 0 0 0 0 0 0 0 0 0 0 0 0 0 0 0 0 0 0 0 0 0 0 0 0 0 0 0 0 0 0 0 0
0 0 0 0 0 0 0 0 0 0 0 0 0 0 0 0 0 0 0 0 0 0 0 0 0 0 0 0 0 0 0 0 0 0 0 0 0 0 0 0 0 0 0 0
0 0 0 0 0 0 0 0 0 0 0 0 0 0 0 0 0 0 0 0 0 0 0 0 0 0 0 0 0 0 0 0 0 0 0 0 0 0 0 0 0 0 0 0
0 0 0 0 0 0 0 0 0 0 0 0 0 0 0 0 0 0 0 0 0 0 0 0 0 0 0 0 0 0 0 0 0 0 0 0 0 0 0 0 0 0 0 0
0 0 0 0 0 0 0 0 0 0 0 0 0 0 0 0 0 0 0 0 0 0 0 0 0 0 0 0 0 0 0 0 0 0 0 0 0 0 0 0 0 0 0 0
0 0 0 0 0 0 0 0 0 0 0 0 0 0 0 0 0 0 0 0 0 0 0 0 0 0 0 0 0 0 0 0 0 0 0 0 0 0 0 0 0 0 0 0
0 0 0 0 0 0 0 0 0 0 0 0 0 0 0 0 0 0 0 0 0 0 0 0 0 0 0 0 0 0 0 0 0 0 0 0 0 0 0 0 0 0 0 0
0 0 0 0 0 0 0 0 0 0 0 0 0 0 0 0 0 0 0 0 0 0 0 0 0 0 0 0 0 0 0 0 0 0 0 0 0 0 0 0 0 0 0 0
0 0 0 0 0 0 0 0 0 0 0 0 0 0 0 0 0 0 0 0 0 0 0 0 0 0 0 0 0 0 0 0 0 0 0 0 0 0 0 0 0 0 0 0
0 0 0 0 0 0 0 0 0 0 0 0 0 0 0 0 0 0 0 0 0 0 0 0 0 0 0 0 0 0 0 0 0 0 0 0 0 0 0 0 0 0 0 0
0 0 0 0 0 0 0 0 0 0 0 0 0 0 0 0 0 0 0 0 0 0 0 0 0 0 0 0 0 0 0 0 0 0 0 0 0 0 0 0 0 0 0 0
0 0 0 0 0 0 0 0 0 0 0 0 0 0 0 0 0 0 0 0 0 0 0 0 0 0 0 0 0 0 0 0 0 0 0 0 0 0 0 0 0 0 0 0
0 0 0 0 0 0 0 0 0 0 0 0 0 0 0 0 0 0 0 0 0 0 0 0 0 0 0 0 0 0 0 0 0 0 0 0 0 0 0 0 0 0 0 0
0 0 0 0 0 0 0 0 0 0 0 0 0 0 0 0 0 0 0 0 0 0 0 0 0 0 0 0 0 0 0 0 0 0 0 0 0 0 0 0 0 0 0 0
0 0 0 0 0 0 0 0 0 0 0 0 0 0 0 0 0 0 0 0 0 0 0 0 0 0 0 0 0 0 0 0 0 0 0 0 0 0 0 0 0 0 0 0
0 0 0 0 0 0 0 0 0 0 0 0 0 0 0 0 0 0 0 0 0 0 0 0 0 0 0 0 0 0 0 0 0 0 0 0 0 0 0 0 0 0 0 0
0 0 0 0 0 0 0 0 0 0 0 0 0 0 0 0 0 0 0 0 0 0 0 0 0 0 0 0 0 0 0 0 0 0 0 0 0 0 0 0 0 0 0 0
0 0 0 0 0 0 0 0 0 0 0 0 0 0 0 0 0 0 0 0 0 0 0 0 0 0 0 0 0 0 0 0 0 0 0 0 0 0 0 0 0 0 0 0
0 0 0 0 0 0 0 0 0 0 0 0 0 0 0 0 0 0 0 0 0 0 0 0 0 0 0 0 0 0 0 0 0 0 0 0 0 0 0 0 0 0 0 0
0 0 0 0 0 0 0 0 0 0 0 0 0 0 0 0 0 0 0 0 0 0 0 0 0 0 0 0 0 0 0 0 0 0 0 0 0 0 0 0 0 0 0 0
Wind_Speed
2 2 3 3 4 4 3 1 3 5 5 5 4 6 6 7 8 8 9 9 9 9 9 9 9 9 9 10 10 9 9 9 11 11 10 10 10 10 10 9 10 9 9 9
2 3 5 4 4 2 1 1 3 3 5 5 5 5 7 8 9 9 10 10 10 10 10 10 10 10 10 10 10 9 9 11 11 10 10 10 10 10 9 9 9 8 9 9
2 2 2 2 2 1 3 4 4 5 6 5 7 8 8 9 9 10 10 10 11 11 10 11 11 10 10 11 10 10 10 11 11 11 11 11 11 9 9 9 9 9 9 9
2 2 2 4 2 2 4 5 4 5 6 7 9 8 8 9 8 10 10 10 11 10 11 11 11 11 11 11 10 11 11 12 11 11 11 10 10 10 10 9 8 8 9 9
3 1 3 3 2 1 3 7 4 5 7 8 7 6 7 7 6 8 10 10 10 11 12 11 12 12 12 12 12 12 12 12 11 11 11 10 10 10 9 8 8 8 8 9
3 1 3 5 3 1 0 6 3 4 7 7 5 5 7 6 7 9 10 9 10 11 11 12 12 12 12 13 12 13 13 12 11 11 11 11 11 10 8 8 9 8 8 8
2 1 6 5 2 2 0 7 4 4 6 5 4 7 9 10 9 9 10 12 12 12 11 12 12 11 12 13 13 13 12 12 11 11 11 11 10 9 8 7 7 7 8 8
3 0 5 2 2 3 7 4 3 4 5 5 7 9 9 9 10 10 11 11 12 11 12 12 12 12 13 14 14 13 12 12 12 11 10 10 8 8 7 7 7 7 7 7
7 7 6 3 5 4 3 3 4 4 5 5 6 7 8 8 9 10 11 11 11 12 13 13 12 11 14 15 13 12 12 11 10 10 9 8 8 8 6 5 5 5 5 5
2 6 5 4 3 2 2 3 4 4 5 4 6 8 9 9 9 10 10 11 11 12 14 14 13 13 13 14 12 11 11 10 9 8 8 7 6 5 5 5 5 5 5 5
4 5 4 4 4 3 2 2 3 3 3 4 6 8 8 9 10 10 10 10 10 12 14 15 15 14 14 13 11 12 11 10 8 7 7 6 5 4 5 5 5 5 4 4
7 7 6 6 3 2 2 2 3 3 5 6 5 7 8 9 9 10 11 12 12 13 14 15 15 15 14 12 11 11 10 8 6 5 5 5 5 5 5 6 7 8 8 6
5 4 5 3 1 1 1 2 2 3 5 7 7 7 7 8 8 10 11 13 13 14 15 15 15 15 14 12 11 11 10 9 6 5 5 5 4 4 4 3 3 4 4 6
4 4 2 2 2 1 1 1 2 4 5 5 6 7 8 8 10 12 13 13 14 14 14 14 15 15 14 13 12 11 10 9 7 5 5 4 4 3 3 2 2 1 1 1
5 4 4 2 2 1 0 1 3 5 6 6 6 7 8 10 11 12 13 13 13 14 14 14 15 16 15 14 12 11 9 6 5 5 4 4 3 3 2 2 2 1 1 1
5 3 3 3 2 2 1 2 3 5 6 6 7 8 9 10 11 12 12 12 13 15 14 14 15 15 15 14 12 9 7 10 9 4 3 3 3 2 2 1 1 1 0 0
7 5 5 4 4 3 3 4 4 5 5 6 7 8 9 10 11 12 13 13 13 12 12 12 15 16 15 13 11 8 7 7 10 5 3 3 3 2 2 1 0 1 1 1
7 7 7 6 5 4 4 4 4 4 4 6 7 7 9 10 11 13 14 14 14 13 12 13 15 16 14 13 10 8 7 6 5 4 3 3 3 2 1 1 1 1 1 1
6 7 7 6 5 5 4 4 4 4 5 5 6 7 8 9 10 11 12 13 13 14 15 16 19 15 14 14 14 7 7 6 5 4 3 3 3 2 1 1 1 1 2 2
6 6 6 5 5 4 4 4 3 3 4 4 5 7 8 9 10 11 11 9 8 10 14 15 15 13 13 13 15 7 7 6 5 5 4 3 3 2 2 2 2 2 2 2
8 7 7 6 5 4 4 3 3 3 4 4 4 6 8 9 9 9 10 9 11 13 15 14 11 11 12 13 13 8 7 6 5 5 5 4 4 3 2 2 2 2 2 2
7 7 7 6 5 4 3 3 3 3 3 4 5 5 7 8 9 9 7 6 10 15 12 9 10 14 17 14 8 8 8 7 6 5 4 4 4 3 3 3 3 2 3 2
7 7 7 7 6 4 3 3 3 2 2 3 4 5 6 7 6 7 9 8 9 14 11 9 15 20 19 10 9 9 9 9 7 6 5 5 4 4 3 4 3 3 3 3
7 7 6 5 4 3 4 4 3 2 2 3 3 4 5 5 5 4 6 10 12 13 9 10 16 19 14 8 9 9 9 9 8 7 6 5 5 4 4 4 4 4 3 4
8 7 6 6 6 5 5 3 2 2 2 2 4 4 4 3 4 6 7 9 12 12 9 11 15 15 11 9 9 9 9 9 9 8 7 6 6 5 5 5 5 4 4 4
8 7 7 7 6 4 4 4 3 2 2 2 3 3 4 4 5 5 6 8 11 11 9 8 10 10 9 9 9 9 9 9 9 8 9 7 7 6 6 6 7 5 5 4
6 5 4 4 4 4 4 4 4 3 3 2 2 3 3 4 5 6 7 7 7 8 8 8 8 8 8 8 8 9 8 8 8 8 8 8 7 6 6 7 5 5 5 5
Wind_Direction
68 52 93 78 53 55 82 152 221 264 267 268 281 286 286 288 292 297 295 292 289 286 285 285 286 284 281 280 280 279 275 271 267 265 262 259 256 254 251 246 243 240 241 241
56 64 79 68 38 40 31 282 260 274 273 258 279 290 288 288 290 290 288 287 289 289 289 289 288 287 286 283 281 279 274 272 272 269 265 260 257 253 250 248 245 239 239 241
191 243 0 320 283 284 273 254 234 245 259 287 293 289 282 285 289 286 286 289 292 292 288 287 287 286 284 284 286 284 279 278 276 273 270 265 262 258 252 250 247 241 240 238
113 87 266 252 251 236 255 259 231 243 266 274 267 276 279 278 279 285 289 291 294 294 291 289 288 289 288 290 289 287 284 281 279 276 273 270 263 257 253 250 248 246 243 239
100 125 296 278 257 230 261 279 225 241 272 282 296 318 295 281 283 282 286 289 291 290 292 293 295 295 296 295 292 289 285 281 279 277 275 271 266 260 256 252 250 246 245 239
104 123 258 253 262 290 147 293 251 244 274 289 322 320 288 295 305 297 296 295 295 297 299 300 299 300 300 298 297 293 291 288 286 283 277 272 267 262 256 248 251 251 248 242
118 230 268 253 273 60 72 269 278 257 271 283 266 249 274 300 299 293 293 296 298 302 303 300 302 304 301 300 296 294 294 291 288 285 280 275 269 262 255 249 248 247 248 248
137 67 276 235 140 183 227 252 277 276 275 276 271 279 290 296 296 301 302 302 305 306 305 305 305 306 304 300 298 297 296 293 289 287 285 285 272 265 256 247 245 247 247 250
182 211 240 230 212 225 200 243 270 272 281 285 286 290 295 294 298 301 301 305 307 307 308 310 309 308 305 303 303 303 301 297 294 293 289 284 276 270 263 247 242 243 241 244
241 263 252 243 243 258 231 242 268 276 286 290 288 292 297 299 301 304 305 309 310 312 314 315 315 313 307 307 309 308 305 301 298 296 295 291 281 270 260 248 240 238 239 240
250 272 290 272 241 243 261 276 295 304 294 291 292 296 296 301 304 306 310 309 312 316 315 316 317 316 314 314 315 311 307 303 300 296 295 295 289 275 263 249 236 234 239 236
219 222 197 243 243 217 234 268 286 296 301 302 297 294 299 302 301 306 312 315 318 318 318 318 319 317 317 318 318 314 310 308 302 298 298 295 296 296 271 258 257 245 242 240
206 191 187 227 221 185 210 253 276 283 290 300 303 299 301 300 303 309 314 319 320 320 319 319 320 320 322 323 319 315 311 311 306 303 300 299 297 298 302 300 275 264 256 244
184 143 171 204 207 201 211 269 293 302 301 299 297 304 307 305 310 318 320 320 319 319 320 323 323 324 326 325 321 317 314 312 311 304 302 300 297 294 290 294 307 316 316 269
188 175 185 178 148 153 241 295 308 308 308 309 307 311 315 317 317 317 317 319 321 324 326 328 328 327 328 327 325 320 315 309 304 299 301 300 296 294 293 288 290 306 352 24
167 143 145 155 190 225 261 281 287 294 302 305 309 314 314 313 312 314 319 325 328 327 326 328 329 328 329 328 328 324 317 318 322 314 313 315 311 308 304 296 299 313 302 249
146 175 190 204 219 230 242 252 261 278 293 302 306 311 317 320 323 326 328 328 324 319 321 328 329 329 329 330 329 324 322 322 328 327 321 314 312 312 305 289 296 304 284 221
178 182 180 185 194 217 246 263 271 281 285 293 307 317 324 326 325 325 325 326 326 329 336 337 334 332 330 332 331 326 326 328 328 327 327 324 323 324 333 352 17 17 25 63
168 169 175 182 188 197 223 249 262 271 286 301 314 317 315 316 318 321 325 329 333 338 339 337 333 333 332 334 338 329 334 337 338 336 335 337 339 358 20 32 43 57 72 83
169 170 176 185 190 198 225 247 256 267 287 303 313 319 323 325 326 327 328 326 331 333 329 331 333 335 336 335 339 334 339 344 345 345 349 359 9 21 35 52 68 75 84 95
178 179 182 190 204 218 228 238 234 261 289 307 313 315 317 319 324 328 331 333 337 339 335 333 339 340 338 335 334 341 347 350 353 356 359 6 16 28 39 54 71 80 88 93
183 183 189 193 203 225 237 229 226 252 286 308 315 319 323 326 329 329 323 323 328 334 336 339 344 342 340 339 345 350 354 357 359 3 8 11 20 31 38 48 63 73 79 81
183 186 188 193 202 216 229 221 226 243 272 295 309 317 319 315 318 327 332 330 333 335 337 342 341 343 345 350 354 357 0 4 6 7 10 15 23 31 39 49 59 70 78 80
183 187 194 188 172 183 217 229 232 242 264 282 292 305 313 318 320 317 312 318 331 335 339 341 344 348 353 358 359 0 2 5 6 8 11 16 24 32 40 48 56 62 68 75
187 184 179 176 187 206 214 208 211 240 273 294 305 315 318 310 310 319 325 331 339 344 344 345 349 353 1 1 1 1 2 3 5 8 15 20 23 29 39 47 52 55 57 59
185 189 190 194 196 193 181 176 191 217 242 283 301 314 324 325 324 327 334 340 346 348 352 352 354 357 2 2 2 3 3 2 6 12 16 20 25 30 34 41 47 49 50 50
184 180 175 185 193 182 174 177 187 202 212 230 275 306 324 333 339 344 348 352 354 355 356 357 358 0 2 4 4 5 7 7 7 10 12 16 20 26 29 36 40 43 46 52